sat.trackr.live / text

‹ back to catalog

STARLINK-31214

NORAD 58871 · 2024-019U

PAYLOAD ACTIVE UNKNOWN

§ Identity

Operator
Country
US
Launch date
2024-01-29
Launch site
AFETR
Launch vehicle
Mass (kg)
RCS (m²)

Purposes: comms

External: N2YO · Heavens-Above · Gunter

§ Orbital elements

Epoch: 2026-09-20T08:02:45.712320Z

Period
94.27 min
Inclination
43.0003°
Eccentricity
0.0001094
Mean motion
15.27575973 rev/d
Perigee alt
482.3 km
Apogee alt
483.8 km
Semi-major
6,861.2 km
B*
3.0550e-5
RAAN
229.4170°
Arg perigee
269.1389°
Mean anomaly
90.9338°
Rev number
14,883

§ Raw data

STARLINK-312141 58871U 24019U   26263.33525130  .00000579  00000+0  30550-4 0  99932 58871  43.0003 229.4170 0001094 269.1389  90.9338 15.27575973148835

JSON: /api/v1/satellites/58871 · /tle

For live sub-satellite position, see the globe view (requires WebGL).

§ Visibility from observer

Set your observer location to see the next 7 days of passes ≥ 10°. The values pass through the URL so the page stays shareable.

No JS? Fill the form by hand. The geolocation button needs JavaScript.